GIA212 WIII-WAHI

Flight info

Callsign GIA212
Flight time 0h 41m
Altitude 33000
Route PW W17 CLP
Aircraft B77W/H-SDE1E2E3FGHIJ2J3J4J5M1RWXY/LB1D1

Departure

Time 2026-04-21 19:21
Airport Soekarno-Hatta International Airport (WIII)

Arrival

Time 2026-04-21 20:03
Airport Yogyakarta International Airport (WAHI)
Time Latitude Longitude Altitude Speed Heading
2026-04-21 19:05 -6.13264 106.65772 43 ft 0 kts 284°
2026-04-21 19:14 -6.13267 106.65795 40 ft 4 kts 257°
2026-04-21 19:14 -6.13256 106.65817 40 ft 4 kts 217°
2026-04-21 19:15 -6.13234 106.65828 43 ft 2 kts 186°
2026-04-21 19:15 -6.13232 106.65828 43 ft 0 kts 185°
2026-04-21 19:17 -6.13272 106.65824 39 ft 9 kts 185°
2026-04-21 19:17 -6.13337 106.65831 43 ft 12 kts 164°
2026-04-21 19:17 -6.13435 106.65895 43 ft 20 kts 103°
2026-04-21 19:18 -6.13398 106.66028 43 ft 20 kts 67°
2026-04-21 19:18 -6.13344 106.66156 44 ft 20 kts 67°
2026-04-21 19:18 -6.13309 106.66241 44 ft 20 kts 68°
2026-04-21 19:18 -6.13257 106.66370 44 ft 20 kts 69°
2026-04-21 19:19 -6.13209 106.66500 44 ft 20 kts 69°
2026-04-21 19:19 -6.13158 106.66628 44 ft 20 kts 68°
2026-04-21 19:19 -6.13106 106.66757 44 ft 20 kts 68°
2026-04-21 19:19 -6.13055 106.66886 44 ft 20 kts 68°
2026-04-21 19:20 -6.13003 106.67015 44 ft 20 kts 68°
2026-04-21 19:20 -6.12951 106.67144 41 ft 20 kts 69°
2026-04-21 19:20 -6.13005 106.67251 44 ft 19 kts 151°
2026-04-21 19:20 -6.13113 106.67214 45 ft 21 kts 246°
2026-04-21 19:21 -6.13260 106.66854 48 ft 99 kts 248°
2026-04-21 19:21 -6.13621 106.65953 46 ft 174 kts 248°
2026-04-21 19:21 -6.14097 106.64732 621 ft 191 kts 248°
2026-04-21 19:21 -6.14588 106.63482 1502 ft 195 kts 249°
2026-04-21 19:22 -6.15127 106.62137 1996 ft 219 kts 249°
2026-04-21 19:22 -6.15711 106.60686 2750 ft 229 kts 249°
2026-04-21 19:22 -6.16534 106.59324 3459 ft 236 kts 220°
2026-04-21 19:22 -6.18046 106.58701 4296 ft 241 kts 182°
2026-04-21 19:23 -6.19671 106.59048 5179 ft 242 kts 151°
2026-04-21 19:23 -6.20943 106.60145 6031 ft 244 kts 122°
2026-04-21 19:23 -6.21526 106.61724 6835 ft 244 kts 92°
2026-04-21 19:23 -6.21207 106.63381 7618 ft 244 kts 65°
2026-04-21 19:24 -6.20446 106.64925 8338 ft 249 kts 63°
2026-04-21 19:24 -6.19657 106.66493 9173 ft 252 kts 63°
2026-04-21 19:24 -6.18869 106.68069 10028 ft 253 kts 64°
2026-04-21 19:24 -6.18374 106.69761 10671 ft 258 kts 91°
2026-04-21 19:25 -6.18802 106.71553 11144 ft 276 kts 113°
2026-04-21 19:25 -6.19674 106.73368 11366 ft 308 kts 115°
2026-04-21 19:25 -6.20691 106.75421 11603 ft 340 kts 116°
2026-04-21 19:25 -6.21783 106.77620 12190 ft 358 kts 116°
2026-04-21 19:26 -6.22900 106.79883 13132 ft 365 kts 116°
2026-04-21 19:26 -6.24030 106.82187 14122 ft 369 kts 116°
2026-04-21 19:26 -6.25166 106.84518 15059 ft 374 kts 115°
2026-04-21 19:26 -6.26316 106.86883 15917 ft 380 kts 115°
2026-04-21 19:27 -6.27469 106.89251 16826 ft 385 kts 116°
2026-04-21 19:27 -6.28706 106.91655 17722 ft 390 kts 117°
2026-04-21 19:27 -6.29990 106.94075 18544 ft 395 kts 117°
2026-04-21 19:27 -6.31292 106.96526 19274 ft 400 kts 117°
2026-04-21 19:28 -6.32604 106.99017 20039 ft 406 kts 117°
2026-04-21 19:28 -6.33929 107.01544 20776 ft 411 kts 117°
2026-04-21 19:28 -6.35270 107.04105 21497 ft 416 kts 117°
2026-04-21 19:28 -6.36629 107.06695 22230 ft 422 kts 117°
2026-04-21 19:29 -6.38005 107.09317 22950 ft 427 kts 117°
2026-04-21 19:29 -6.39399 107.11973 23633 ft 432 kts 117°
2026-04-21 19:29 -6.40804 107.14652 24242 ft 436 kts 117°
2026-04-21 19:29 -6.42227 107.17366 24841 ft 440 kts 117°
2026-04-21 19:30 -6.43659 107.20098 25428 ft 444 kts 117°
2026-04-21 19:30 -6.45107 107.22861 26019 ft 449 kts 117°
2026-04-21 19:30 -6.46567 107.25647 26638 ft 452 kts 117°
2026-04-21 19:30 -6.48040 107.28459 27216 ft 457 kts 117°
2026-04-21 19:31 -6.49530 107.31303 27784 ft 462 kts 117°
2026-04-21 19:31 -6.51031 107.34171 28349 ft 466 kts 117°
2026-04-21 19:31 -6.52547 107.37064 28912 ft 470 kts 117°
2026-04-21 19:31 -6.54076 107.39983 29508 ft 473 kts 117°
2026-04-21 19:32 -6.55894 107.42724 29984 ft 476 kts 132°
2026-04-21 19:32 -6.58465 107.44807 30579 ft 476 kts 149°
2026-04-21 19:32 -6.61494 107.46114 31321 ft 473 kts 165°
2026-04-21 19:32 -6.64704 107.46754 31972 ft 470 kts 170°
2026-04-21 19:33 -6.66841 107.47121 32363 ft 471 kts 170°
2026-04-21 19:33 -6.71165 107.47877 32940 ft 475 kts 169°
2026-04-21 19:33 -6.77662 107.49116 32909 ft 472 kts 169°
2026-04-21 19:34 -6.84049 107.50435 32918 ft 466 kts 163°
2026-04-21 19:34 -6.86947 107.51777 32928 ft 466 kts 145°
2026-04-21 19:34 -6.89380 107.53923 32938 ft 467 kts 130°
2026-04-21 19:35 -6.91156 107.56642 32928 ft 464 kts 115°
2026-04-21 19:35 -6.93989 107.62515 32932 ft 469 kts 115°
2026-04-21 19:36 -6.96886 107.68430 32944 ft 472 kts 116°
2026-04-21 19:36 -6.99834 107.74341 32937 ft 473 kts 116°
2026-04-21 19:37 -7.02799 107.80242 32921 ft 471 kts 116°
2026-04-21 19:37 -7.05747 107.86107 32924 ft 468 kts 116°
2026-04-21 19:38 -7.08679 107.91945 32913 ft 466 kts 116°
2026-04-21 19:38 -7.11597 107.97760 32917 ft 465 kts 116°
2026-04-21 19:39 -7.14506 108.03562 32903 ft 464 kts 116°
2026-04-21 19:39 -7.17413 108.09360 32913 ft 464 kts 116°
2026-04-21 19:40 -7.20326 108.15172 32911 ft 465 kts 116°
2026-04-21 19:40 -7.23243 108.20995 32894 ft 467 kts 116°
2026-04-21 19:41 -7.26169 108.26838 32896 ft 468 kts 116°
2026-04-21 19:41 -7.29099 108.32692 32892 ft 468 kts 116°
2026-04-21 19:42 -7.32031 108.38550 32898 ft 468 kts 116°
2026-04-21 19:42 -7.34962 108.44411 32881 ft 468 kts 115°
2026-04-21 19:43 -7.37891 108.50267 32874 ft 468 kts 115°
2026-04-21 19:43 -7.40817 108.56121 32881 ft 467 kts 115°
2026-04-21 19:44 -7.43738 108.61968 32870 ft 467 kts 115°
2026-04-21 19:44 -7.46657 108.67815 32870 ft 467 kts 115°
2026-04-21 19:45 -7.49575 108.73660 32856 ft 467 kts 115°
2026-04-21 19:45 -7.52491 108.79504 32856 ft 467 kts 115°
2026-04-21 19:46 -7.55388 108.85311 32860 ft 467 kts 115°
2026-04-21 19:46 -7.58305 108.91163 32861 ft 467 kts 115°
2026-04-21 19:47 -7.61226 108.97026 32504 ft 474 kts 115°
2026-04-21 19:47 -7.62717 109.00020 31765 ft 479 kts 115°
2026-04-21 19:47 -7.64179 109.03028 31221 ft 475 kts 112°
2026-04-21 19:47 -7.65078 109.06195 30682 ft 466 kts 96°
2026-04-21 19:48 -7.65443 109.09416 30198 ft 461 kts 95°
2026-04-21 19:48 -7.65767 109.12622 29610 ft 458 kts 95°
2026-04-21 19:48 -7.66096 109.15805 29030 ft 455 kts 95°
2026-04-21 19:48 -7.66445 109.18964 28479 ft 451 kts 95°
2026-04-21 19:49 -7.66809 109.22092 27944 ft 447 kts 96°
2026-04-21 19:49 -7.67184 109.25189 27422 ft 444 kts 96°
2026-04-21 19:49 -7.67565 109.28269 26895 ft 441 kts 96°
2026-04-21 19:49 -7.67946 109.31325 26376 ft 438 kts 96°
2026-04-21 19:50 -7.68196 109.33332 26041 ft 436 kts 96°
2026-04-21 19:50 -7.68700 109.37376 25355 ft 433 kts 97°
2026-04-21 19:50 -7.69073 109.40378 24827 ft 431 kts 97°
2026-04-21 19:50 -7.69531 109.43350 24357 ft 428 kts 103°
2026-04-21 19:51 -7.70469 109.46165 24010 ft 421 kts 114°
2026-04-21 19:51 -7.71813 109.48749 23768 ft 411 kts 121°
2026-04-21 19:51 -7.73414 109.51060 23485 ft 404 kts 127°
2026-04-21 19:51 -7.75098 109.53316 23016 ft 401 kts 127°
2026-04-21 19:52 -7.76769 109.55558 22495 ft 399 kts 127°
2026-04-21 19:52 -7.78428 109.57792 22018 ft 397 kts 126°
2026-04-21 19:52 -7.80070 109.60016 21563 ft 394 kts 126°
2026-04-21 19:52 -7.81694 109.62223 21137 ft 390 kts 126°
2026-04-21 19:53 -7.83302 109.64412 20703 ft 387 kts 126°
2026-04-21 19:53 -7.84897 109.66586 20284 ft 384 kts 126°
2026-04-21 19:53 -7.86476 109.68741 19844 ft 381 kts 126°
2026-04-21 19:53 -7.88048 109.70886 19440 ft 379 kts 126°
2026-04-21 19:54 -7.89610 109.73018 18972 ft 378 kts 126°
2026-04-21 19:54 -7.91172 109.75152 18424 ft 379 kts 126°
2026-04-21 19:54 -7.92744 109.77297 17829 ft 381 kts 126°
2026-04-21 19:54 -7.94323 109.79455 17081 ft 384 kts 126°
2026-04-21 19:55 -7.95917 109.81632 16366 ft 388 kts 126°
2026-04-21 19:55 -7.97526 109.83830 15649 ft 390 kts 126°
2026-04-21 19:55 -7.99144 109.86032 14953 ft 392 kts 127°
2026-04-21 19:55 -8.00889 109.88139 14254 ft 384 kts 131°
2026-04-21 19:56 -8.02640 109.90064 13544 ft 361 kts 132°
2026-04-21 19:56 -8.04300 109.91880 12772 ft 343 kts 132°
2026-04-21 19:56 -8.05867 109.93623 12045 ft 329 kts 131°
2026-04-21 19:56 -8.07366 109.95310 11314 ft 317 kts 131°
2026-04-21 19:57 -8.08810 109.96940 10603 ft 307 kts 131°
2026-04-21 19:57 -8.10101 109.98600 9894 ft 297 kts 116°
2026-04-21 19:57 -8.10625 110.00570 9146 ft 289 kts 90°
2026-04-21 19:57 -8.10326 110.02539 8429 ft 283 kts 72°
2026-04-21 19:58 -8.09472 110.04298 7699 ft 278 kts 55°
2026-04-21 19:58 -8.08283 110.05821 7013 ft 275 kts 50°
2026-04-21 19:58 -8.07045 110.07280 6312 ft 272 kts 50°
2026-04-21 19:58 -8.05828 110.08734 5583 ft 270 kts 51°
2026-04-21 19:59 -8.04632 110.10189 4859 ft 268 kts 51°
2026-04-21 19:59 -8.03454 110.11636 4149 ft 266 kts 51°
2026-04-21 19:59 -8.02303 110.13053 3716 ft 252 kts 50°
2026-04-21 19:59 -8.01080 110.14222 3420 ft 235 kts 36°
2026-04-21 20:00 -7.99762 110.15141 2997 ft 226 kts 34°
2026-04-21 20:00 -7.98480 110.16012 2588 ft 217 kts 32°
2026-04-21 20:00 -7.97129 110.16508 2249 ft 200 kts
2026-04-21 20:00 -7.95832 110.16231 1995 ft 189 kts 335°
2026-04-21 20:01 -7.94763 110.15475 1805 ft 189 kts 310°
2026-04-21 20:01 -7.93998 110.14404 1563 ft 188 kts 305°
2026-04-21 20:01 -7.93290 110.13330 1279 ft 178 kts 297°
2026-04-21 20:01 -7.92846 110.12216 1087 ft 165 kts 290°
2026-04-21 20:02 -7.92596 110.11497 966 ft 163 kts 290°
2026-04-21 20:02 -7.92109 110.10126 674 ft 147 kts 291°
2026-04-21 20:02 -7.91768 110.09170 483 ft 146 kts 291°
2026-04-21 20:02 -7.91420 110.08211 303 ft 144 kts 291°
2026-04-21 20:03 -7.91102 110.07261 119 ft 143 kts 292°
2026-04-21 20:03 -7.90763 110.06355 50 ft 130 kts 290°
2026-04-21 20:03 -7.90521 110.05690 53 ft 47 kts 290°
2026-04-21 20:03 -7.90448 110.05490 51 ft 25 kts 290°
2026-04-21 20:04 -7.90377 110.05328 46 ft 26 kts 303°
2026-04-21 20:04 -7.90274 110.05218 46 ft 20 kts 318°
2026-04-21 20:04 -7.90180 110.05208 45 ft 15 kts 62°
2026-04-21 20:04 -7.90188 110.05277 47 ft 15 kts 109°
2026-04-21 20:05 -7.90222 110.05378 48 ft 15 kts 109°
2026-04-21 20:05 -7.90258 110.05477 49 ft 15 kts 111°
2026-04-21 20:05 -7.90296 110.05576 51 ft 15 kts 110°
2026-04-21 20:05 -7.90333 110.05676 50 ft 15 kts 109°
2026-04-21 20:06 -7.90290 110.05763 49 ft 17 kts 22°
2026-04-21 20:06 -7.90185 110.05835 46 ft 19 kts 35°
2026-04-21 20:06 -7.90121 110.05865 46 ft 0 kts 20°